This demonstration page uses our WeatherBlox Daily Observations layout. Learn more.

Left ArrowRight Arrow

39.08367, -84.50855

Hourly Observations for March 14, 2020

Temp ( °F °C ) Dew Point ( °F °C ) Humidity (%) Winds ( mph kmh ) Pressure ( in mb ) Visibility ( mi km ) Precip ( " mm )
12:53 am 00:53 Clear 37 2.8 31 -0.6 79 79 N N/A 30.42 1030 10 16 N/A
1:53 am 01:53 Clear 36 2.2 31 -0.6 82 82 N N/A 30.43 1031 10 16 N/A
2:53 am 02:53 Clear 35 1.7 31 -0.6 85 85 N N/A 30.45 1031 10 16 N/A
3:53 am 03:53 Clear 36 2.2 32 undefined 86 86 N N/A 30.44 1031 10 16 N/A
4:53 am 04:53 Cloudy 36 2.2 32 undefined 86 86 N N/A 30.43 1030 10 16 N/A
5:53 am 05:53 Cloudy 37 2.8 33 0.6 86 86 N 3 6 30.42 1030 10 16 N/A
6:53 am 06:53 Cloudy 38 3.3 33 0.6 83 83 N N/A 30.43 1031 10 16 N/A
7:53 am 07:53 Cloudy 38 3.3 33 0.6 83 83 N 3 6 30.42 1030 10 16 N/A
8:53 am 08:53 Cloudy 41 5 33 0.6 73 73 NNE 3 6 30.44 1031 10 16 N/A
9:53 am 09:53 Cloudy 43 6.1 30 -1.1 60 60 ENE 6 9 30.45 1031 10 16 N/A
10:53 am 10:53 Cloudy 46 7.8 27 -2.8 47 47 ENE 12 19 30.43 1031 10 16 N/A
11:53 am 11:53 Cloudy with Light Rain 45 7.2 26 -3.3 48 48 NE 8 13 30.46 1032 10 16 0.00 0.00
12:53 pm 12:53 Cloudy with Light Rain 44 6.7 27 -2.8 51 51 NE 6 9 30.45 1031 10 16 0.00 0.00
1:53 pm 13:53 Cloudy with Rain 41 5 32 undefined 70 70 N N/A 30.45 1031 6 10 0.09 2.29
2:53 pm 14:53 Cloudy with Rain 39 3.9 36 2.2 89 89 ENE 5 7 30.41 1030 6 10 0.10 2.54
3:53 pm 15:53 Cloudy with Light Rain 40 4.4 36 2.2 86 86 NE 12 19 30.39 1029 8 13 0.04 1.02
4:53 pm 16:53 Cloudy with Light Rain 38 3.3 35 1.7 89 89 NE 13 20 30.38 1029 10 16 0.02 0.51
5:53 pm 17:53 Cloudy with Light Rain 37 2.8 34 1.1 89 89 NE 10 17 30.39 1029 5 8 0.01 0.25
6:53 pm 18:53 Cloudy with Light Rain 37 2.8 34 1.1 89 89 NE 10 17 30.37 1029 6 10 0.03 0.76
7:53 pm 19:53 Cloudy 37 2.8 34 1.1 89 89 ENE 8 13 30.36 1028 10 16 0.00 0.00
8:11 pm 20:11 Cloudy 37 2.8 33 0.6 86 86 ENE 13 20 30.37 1029 10 16 N/A
8:53 pm 20:53 Cloudy 37 2.8 33 0.6 86 86 N 10 17 30.44 1031 10 16 N/A
9:53 pm 21:53 Cloudy 36 2.2 33 0.6 89 89 NNE 10 17 30.45 1031 7 11 N/A
10:53 pm 22:53 Cloudy 36 2.2 33 0.6 89 89 NNE 10 17 30.43 1031 10 16 N/A
11:53 pm 23:53 Cloudy 36 2.2 33 0.6 89 89 NNE 8 13 30.44 1031 10 16 N/A

Powered by AerisWeather